Tracking 19572 objects as of 23-Feb-2019
HD Live streaming from Space Station
objects crossing your sky now

COSMOS 1766

Track COSMOS 1766 now!
10-day predictions
COSMOS 1766 is classified as:


NORAD ID: 16881
Int'l Code: 1986-055A
Perigee: 528.9 km
Apogee: 553.5 km
Inclination: 82.5 °
Period: 95.3 minutes
Semi major axis: 6912 km
RCS: 9.3716 m2 (large)
Launch date: July 28, 1986
Source: Commonwealth of Independent States (former USSR) (CIS)
Launch site: PLESETSK MISSILE AND SPACE COMPLEX (PKMTR)
aabbcc
Your satellite tracking list
Your tracking list is empty




NASA's NSSDC Master Catalog

Two Line Element Set (TLE):
1 16881U 86055A   19054.34009463 -.00000053  00000-0 -51098-5 0  9994
2 16881  82.5068 140.6711 0017830 135.3914 224.8754 15.10698385774444
Source of the keplerian elements: AFSPC